Other Public Products
Issued by NWS Charleston, SC

Current Version | Previous Version | Graphics & Text | Print | Product List | Glossary On
Versions: 1 2 3 4 5 6 7 8 9 10 11 12 13 14 15 16 17 18 19 20 21 22 23 24 25 26 27 28 29 30 31 32 33 34 35 36 37 38 39 40 41 42 43 44 45 46 47 48 49 50
000
FPUS82 KCHS 161512
OPUCHS

TEST...KCHS/KSAV Gateway Observations...TEST
National Weather Service Charleston SC
1000 AM EST SAT DEC 16 2017

NOTE: "fair" indicates few or no clouds below 12,000 feet with no
significant weather and/or obstructions to visibility.

SCZ050-WAZ558-NCZ071-TXZ119-213-PAZ071-DCZ001-FLZ074-172-MI076-
NYZ176-178-MAZ016-IL014-TNZ027-NJZ106-GAZ044-MD014-161600-

...Gateway Observations for Charleston International...

CITY           SKY/WX    TMP DP  RH WIND       PRES   REMARKS
Chas Airport   MOSUNNY   45  30  55 NE9       30.32R
Seattle        MOCLDY    38  37  97 SE7       30.29F WCI  33
Charlotte      CLOUDY    38  28  67 S3        30.29R
Dallas DFW     PTSUNNY   45  31  58 S6        30.11F
Dallas Love    PTSUNNY   45  30  55 SE5       30.14S
Philladelphia  PTSUNNY   32  25  75 SW15      30.13S WCI  22
Wash National  MOSUNNY   37  22  54 SW13      30.18R WCI  29
Baltimore      MOSUNNY   34  23  64 SW3       30.15R
Miami          CLOUDY    74  61  63 N6        30.23R
Detroit        CLOUDY    36  25  64 SW12      29.96R WCI  28
Newark         PTSUNNY   30  19  63 SW14      30.09R WCI  19
Laguardia      PTSUNNY   33  17  51 SW17G23   30.07R WCI  22
J F K          PTSUNNY   32  22  66 W22       30.09R WCI  19
Boston Logan   MOSUNNY   29  16  58 W14       29.94R WCI  18
Ft. Lauderdale CLOUDY    71  63  75 N5        30.22R
Chicago O`Hare MOSUNNY   36  24  62 SW6       29.87R WCI  31
Chicago Midway MOSUNNY   36  25  64 SW10      29.88R WCI  28
Houston Bush   CLOUDY    49  42  77 E5        30.22S
Houston Hobby  CLOUDY    51  40  65 E6        30.21S
Nashville      CLOUDY    38  26  62 SW12      30.26R WCI  30
Atlanta        PTSUNNY   36  26  67 NW8       30.30R WCI  30

$$

GAZ044-118-TXZ119-213-NCZ071-DCZ001-MDZ014-506-PAZ021-071-NJZ106-
NYZ176-178-MAZ106-OHZ011-021-055-MIZ076-KYZ091-ILZ014-INZ047-
MNZ060-ONZ431-161600-

...Gateway Observations for Savannah International...

CITY           SKY/WX    TMP DP  RH WIND       PRES   REMARKS
Savannah Arpt  PTSUNNY   42  27  55 N8        30.33R
Atlanta        PTSUNNY   36  26  67 NW8       30.30R WCI  30
Charlotte      CLOUDY    38  28  67 S3        30.29R
Dallas DFW     PTSUNNY   45  31  58 S6        30.11F
Houston Bush   CLOUDY    49  42  77 E5        30.22S
Wash National  MOSUNNY   37  22  54 SW13      30.18R WCI  29
Wash Dulles    MOSUNNY   33  23  66 S10       30.15R WCI  25
Baltimore      MOSUNNY   34  23  64 SW3       30.15R
Philadelphia   PTSUNNY   32  25  75 SW15      30.13S WCI  22
Newark         PTSUNNY   30  19  63 SW14      30.09R WCI  19
Laguardia      PTSUNNY   33  17  51 SW17G23   30.07R WCI  22
J F K          PTSUNNY   32  22  66 W22       30.09R WCI  19
Boston         MOSUNNY   29  16  58 W14       29.94R WCI  18
Pittsburg      CLOUDY    34  23  64 SW10      30.02R WCI  26
Akron          CLOUDY    33  24  69 SW13      29.99R WCI  24
Cleveland      CLOUDY    36  26  67 SW9       30.00R WCI  29
Cincinnati     SUNNY     36  27  69 SW10      30.08R WCI  28
Columbus       CLOUDY    35  25  68 SW14G24   30.07R WCI  25
Detroit        CLOUDY    36  25  64 SW12      29.96R WCI  28
Chicago O`Hare MOSUNNY   36  24  62 SW6       29.87R WCI  31
Minneapolis    CLOUDY    25  24  96 E6        29.82R WCI  18
Indianapolis   SUNNY     37  27  67 SW15      30.00F WCI  28
Toronto Canada FLURRIES  25  18  74 NW13      29.93R WCI  13

$$




USA.gov is the U.S. government's official web portal to all federal, state and local government web resources and services.